Погода в Альта-Бадии

Италия     46°32′53″N   11°52′23″E
темп.,
°C
ветер,
м/с
пор.,
м/с
влажн.,
%
обл.,
%
осадки,
мм/ч
давл.,
гПа
погр.,
м
9 мая, вс
вс923:000ю118734 0.0 102212
02:000ююв019296 0.0 102310
05:00−2юв11965 0.0 102411
08:00+5ююз11845 0.0 1019114
11:00+10ююз127217 0.0 1018777
14:00+13ююз126679 0.0 10161117
17:00+11ю237894 0.1 1016642
20:00+7ююв2297100 0.4 101785
10 мая, пн
пн1023:00+4ю2298100 0.0 101972
02:00+2ю229865 0.0 102037
05:00+1ю2198100 0.0 102017
08:00+6юз2391100 0.0 1017177
11:00+12юз23637 0.0 10151106
14:00+13ююз246556 0.1 10141124
17:00+12ююз237994 1.7 1014526
20:00+7ююв2396100 2.3 101557
11 мая, вт
вт1123:00+5ююв339852 0.0 1016125
02:00+5ююв239850 0.0 1015104
05:00+5юв239875 0.0 1013134
08:00+6ююв2392100 0.1 1013331
11:00+5ююв3493100 2.4 1013551
14:00+3юв3497100 9.2 1013368
17:00+3юв2398100 2.8 1011278
20:00+2вюв2399100 4.9 1010223
12 мая, ср
ср1223:00+2в1299100 1.2 1009286
02:00+2ссв1299100 3.7 1007321
05:00+2ссз12100100 2.1 1005378
08:00+1с22100100 7.8 1006140
11:00+3с2397100 0.7 1005345
14:00+4ссз2390100 1.7 1004698
17:00+3ссз2398100 0.9 1004465
20:00+2с23100100 2.0 1006225
13 мая, чт
чт1323:00+1с2399100 0.3 1008143
02:000ссв229896 0.3 100886
05:00−2ссв1296100 0.0 100844
08:00+1с2289100 0.0 1007179
11:00+4ссз2280100 0.0 1006522
14:00+5ссз2267100 0.1 10051043
17:00+5с2272100 0.2 1006817
20:00+3сз1185100 0.3 100719